Regional Weather Roundup
Issued by NWS

Home | Current Version | Previous Version | Graphics & Text | Print | Product List | Glossary On
Versions: 1 2 3 4 5 6 7 8 9 10 11 12 13 14 15 16 17 18 19 20 21 22 23 24 25 26 27 28 29 30 31 32 33 34 35 36 37 38 39 40 41 42 43 44 45 46 47 48 49 50
000
ASUS43 KOAX 270010
RWRNE

WEATHER ROUNDUP FOR NEBRASKA
NATIONAL WEATHER SERVICE OMAHA NE
700 PM CDT SUN MAR 26 2017

NOTES: SATELLITE DATA IS BEING USED TO AUGMENT CLOUD COVER ABOVE
       12000 FEET.
       "FAIR" INDICATES FEW OR NO CLOUDS BELOW 12,000 FEET WITH NO
       SIGNIFICANT WEATHER AND/OR OBSTRUCTIONS TO VISIBILITY.

  * THESE STATIONS DO NOT REPORT WEATHER SUCH AS RAIN...SNOW OR FOG.

NEZ001>004-019>022-054>056-270100-
NEBRASKA PANHANDLE

CITY           SKY/WX    TMP DP  RH WIND       PRES   REMARKS
SCOTTSBLUFF    MOSUNNY   52  37  56 N8        29.92S
6HR MIN TEMP:  51; 6HR MAX TEMP:  57; 6HR PCP: TRACE;

ALLIANCE       SUNNY     51  38  60 N17       29.89S
6HR MIN TEMP:  48; 6HR MAX TEMP:  57;

CHADRON        CLOUDY    49  40  71 NE5       29.92F
6HR MIN TEMP:  49; 6HR MAX TEMP:  51;

KIMBALL        MOSUNNY   48  39  70 NW10      29.93R
SIDNEY         MOSUNNY   52  35  52 N12       29.89F
6HR MIN TEMP:  47; 6HR MAX TEMP:  56; 6HR PCP: TRACE;

$$

NEZ057>060-069>072-079>082-270100-
SOUTHWEST NEBRASKA

CITY           SKY/WX    TMP DP  RH WIND       PRES   REMARKS
NORTH PLATTE   CLOUDY    58  34  40 SE5       29.85S
6HR MIN TEMP:  45; 6HR MAX TEMP:  61;

IMPERIAL       CLOUDY    54  39  57 N8        29.88R
6HR MIN TEMP:  45; 6HR MAX TEMP:  59;

LEXINGTON      CLOUDY    53  42  66 SE8       29.89R
MCCOOK         CLOUDY    52  42  69 SW6       29.89R
6HR MIN TEMP:  43; 6HR MAX TEMP:  53; 6HR PCP: TRACE;

OGALLALA       CLOUDY    58  35  43 N8        29.88R
$$

NEZ005>010-023>029-035>040-094-270100-
NORTH CENTRAL NEBRASKA

CITY           SKY/WX    TMP DP  RH WIND       PRES   REMARKS
VALENTINE      CLOUDY    51  37  58 NE10      29.90S
6HR MIN TEMP:  50; 6HR MAX TEMP:  55;

AINSWORTH      CLOUDY    49  42  79 NE13      29.90R
BROKEN BOW     PTCLDY    54  42  64 E9        29.88R
6HR MIN TEMP:  49; 6HR MAX TEMP:  58;

O`NEILL        CLOUDY    46  41  84 N8        29.91S
ORD            PTCLDY    50  41  71 E8        29.89R
6HR MIN TEMP:  44; 6HR MAX TEMP:  55;

THEDFORD       PTSUNNY   58  39  48 E10       29.87R
$$

NEZ041-046>049-061>064-073>077-083>087-270100-
SOUTH CENTRAL NEBRASKA

CITY           SKY/WX    TMP DP  RH WIND       PRES   REMARKS
GRAND ISLAND   CLOUDY    48  45  89 E6        29.92R
6HR MIN TEMP:  48; 6HR MAX TEMP:  51;

AURORA         CLOUDY    48  45  88 E5        29.92R
HASTINGS       CLOUDY    49  43  80 SE5       29.93R
6HR MIN TEMP:  47; 6HR MAX TEMP:  50;

HEBRON         RAIN      47  44  90 CALM      29.94R
HOLDREGE       CLOUDY    48  41  76 E8        29.89F
KEARNEY *      CLOUDY    48  39  71 CALM      29.92R
YORK           CLOUDY    46  45  93 CALM      29.93R
$$

NEZ011>018-030>034-042>045-270100-
NORTHEAST NEBRASKA

CITY           SKY/WX    TMP DP  RH WIND       PRES   REMARKS
NORFOLK        CLOUDY    46  40  79 N10       29.89S
6HR MIN TEMP:  42; 6HR MAX TEMP:  48;

ALBION         CLOUDY    49  42  78 E5        29.91R
BLAIR          CLOUDY    47  42  82 N6        29.90R
FREMONT        CLOUDY    47  42  81 N3        29.92R
TEKAMAH        CLOUDY    48  41  76 N10       29.90S
6HR MIN TEMP:  45; 6HR MAX TEMP:  50;

WAYNE          CLOUDY    45  42  89 N7        29.91S
$$

NEZ050>053-065>068-078-088>093-270100-
SOUTHEAST NEBRASKA

CITY           SKY/WX    TMP DP  RH WIND       PRES   REMARKS
LINCOLN        CLOUDY    48  42  80 NE6       29.93R
6HR MIN TEMP:  44; 6HR MAX TEMP:  49;

OMAHA EPPLEY   CLOUDY    49  41  74 N7        29.90S
6HR MIN TEMP:  45; 6HR MAX TEMP:  50;

BEATRICE       CLOUDY    48  43  84 CALM      29.95R
FALLS CITY     CLOUDY    48  43  82 CALM      29.92R
6HR MIN TEMP:  46; 6HR MAX TEMP:  49;

NEBRASKA CITY  CLOUDY    47  41  79 CALM      29.92R
PLATTSMOUTH    CLOUDY    48  40  71 NE3       29.91R
$$

NEZ044-045-051>053-067-270100-
OMAHA AREA

CITY           SKY/WX    TMP DP  RH WIND       PRES   REMARKS
OMAHA EPPLEY   CLOUDY    49  41  74 N7        29.90S
6HR MIN TEMP:  45; 6HR MAX TEMP:  50;

BLAIR          CLOUDY    47  42  82 N6        29.90R
FREMONT        CLOUDY    47  42  81 N3        29.92R
MILLARD        CLOUDY    51  43  76 N3        29.91R
OFFUTT AFB     CLOUDY    49  41  75 N7        29.91R
PLATTSMOUTH    CLOUDY    48  40  71 NE3       29.91R
WAHOO          CLOUDY    47  43  85 N8        29.91R
$$




USA.gov is the U.S. government's official web portal to all federal, state and local government web resources and services.